Regional Weather Roundup
Issued by NWS

Home | Current Version | Previous Version | Graphics & Text | Print | Product List | Glossary On
Versions: 1 2 3 4 5 6 7 8 9 10 11 12 13 14 15 16 17 18 19 20 21 22 23 24 25 26 27 28 29 30 31 32 33 34 35 36 37 38 39 40 41 42 43 44 45 46 47 48 49 50
000
ASUS43 KIND 261459
RWRIN

WEATHER ROUNDUP FOR INDIANA
NATIONAL WEATHER SERVICE INDIANAPOLIS IN
1100 AM EDT SAT JUL 26 2014

NOTE: "FAIR" INDICATES FEW OR NO CLOUDS BELOW 12,000 FEET WITH NO
SIGNIFICANT WEATHER AND/OR OBSTRUCTIONS TO VISIBILITY.

* - STATION DOES NOT REPORT WEATHER SUCH AS PRECIPITATION OR FOG.

+ - STATION NOT QUALITY CONTROLLED BY THE NATIONAL WEATHER SERVICE.
    USE DATA WITH CAUTION...ESPECIALLY DEWPOINT AND RELATIVE
    HUMIDITY OBSERVATIONS.

INZ001>003-010>013-019-020-261600-
NORTHWEST INDIANA

CITY           SKY/WX    TMP DP  RH WIND       PRES   REMARKS
GARY /AIRPORT/ CLOUDY    75  64  69 S8        29.85F
RENSSELAER +   PTSUNNY   72  68  88 SW7       29.87S
VALPARAISO     CLOUDY    73  64  73 SW13      29.87F

$$

LMZ046-743>745-261600-
SOUTHERN LAKE MICHIGAN

STATION/POSITION TIME  TEMP WIND        PRES
                       AIR  DIR/SP/G
                 (UTC) (F)  (DEG/KT/KT) (MB)
MICHIGAN CITY    1400   70  170/  9/ 13   N/A

$$

INZ004-005-014>016-021>024-261600-
NORTH CENTRAL INDIANA

CITY           SKY/WX    TMP DP  RH WIND       PRES   REMARKS
GOSHEN         PTSUNNY   74  64  71 VRB5      29.88F
PERU/GRISSOM   CLOUDY    73  68  83 SW10      29.89F
SOUTH BEND     PTSUNNY   74  63  68 SW7       29.88S

$$

INZ006>009-017-018-025>027-261600-
NORTHEAST INDIANA

CITY           SKY/WX    TMP DP  RH WIND       PRES   REMARKS
ANGOLA *+      PTSUNNY   75  63  64 VRB5      29.90F
FORT WAYNE     MOSUNNY   76  64  66 SW12      29.90F

$$

INZ028-029-035-036-043>045-051>053-261600-
WEST CENTRAL INDIANA

CITY           SKY/WX    TMP DP  RH WIND       PRES   REMARKS
GREENCASTLE +  PTSUNNY   72  64  78 S3        29.92S
LAFAYETTE      CLOUDY    72  65  78 SW8       29.88F
TERRE HAUTE    MOSUNNY   76  66  71 S10       29.91S

$$

INZ030>032-037>040-046>048-054>057-064-065-261600-
CENTRAL INDIANA

CITY           SKY/WX    TMP DP  RH WIND       PRES   REMARKS
ANDERSON       MOSUNNY   73  63  68 SW12      29.93F
COLUMBUS       MOSUNNY   70  66  88 SW13      29.95F
INDIANAPOLIS   PTSUNNY   74  66  76 SW10      29.91F
-EAGLE CREEK   SUNNY     74  64  71 SW8       29.91F
KOKOMO *+      CLOUDY    73  64  73 SW10      29.89F
MT COMFORT *+  MOSUNNY   73  73 100 S9        29.92F
SHELBYVILLE    PTSUNNY   74  65  73 S14       29.93F

$$

INZ033-034-041-042-049-050-058-059-261600-
EAST CENTRAL INDIANA

CITY           SKY/WX    TMP DP  RH WIND       PRES   REMARKS
MUNCIE         MOSUNNY   75  64  68 SW12G20   29.91F

$$

INZ060-061-067>069-081>083-085>088-261600-
SOUTHWEST INDIANA

CITY           SKY/WX    TMP DP  RH WIND       PRES   REMARKS
EVANSVILLE     MOSUNNY   79  68  69 S16       29.95F
HUNTINGBURG *+ SUNNY     79  66  65 SW13G18   29.97F

$$

INZ062-063-066-070>080-084-089>092-261600-
SOUTH CENTRAL AND SOUTHEAST INDIANA

CITY           SKY/WX    TMP DP  RH WIND       PRES   REMARKS
BLOOMINGTON    MOSUNNY   74  64  71 SW7       29.94F

$$



USA.gov is the U.S. government's official web portal to all federal, state and local government web resources and services.